This is the latest recevied weather packets stored in our database for station/object W8AN. If no packets are shown the sender has not sent any weather packets the latest 10 day(s).
| Time | Temp. | Humidity | Pressure | Rain* | Wind** | Luminosity | Snow |
|---|---|---|---|---|---|---|---|
| 1777550324 | 5.56° C | 83% | 4269 hPa | 0 mm | - | 51 W/m² | - |
| 1777550021 | 6.11° C | 83% | 4269.1 hPa | 0 mm | - | 47 W/m² | - |
| 1777549718 | 5.56° C | 83% | 4269.2 hPa | 0 mm | - | 33 W/m² | - |
| 1777549412 | 6.11° C | 83% | 4269.1 hPa | 0 mm | - | 44 W/m² | - |
| 1777549110 | 5.56° C | 83% | 4269.3 hPa | 0 mm | - | 34 W/m² | - |
| 1777548806 | 5.56° C | 83% | 4269.1 hPa | 0 mm | - | 25 W/m² | - |
| 1777548503 | 5.56° C | 83% | 4269.1 hPa | 0 mm | - | 26 W/m² | - |
| 1777548200 | 5.56° C | 83% | 4268.9 hPa | 0 mm | - | 25 W/m² | - |
| 1777547896 | 6.11° C | 84% | 4268.9 hPa | 0 mm | - | 23 W/m² | - |
| 1777547592 | 6.11° C | 84% | 4269.2 hPa | 0 mm | - | 17 W/m² | - |
| 1777547290 | 6.11° C | 83% | 4269 hPa | 1.78 mm | - | 14 W/m² | - |
| 1777546987 | 6.11° C | 83% | 4269.1 hPa | 1.78 mm | - | 10 W/m² | - |
| 1777546684 | 6.11° C | 83% | 4269.2 hPa | 0 mm | - | 3 W/m² | - |
| 1777546381 | 6.11° C | 83% | 4269 hPa | 0 mm | - | 2 W/m² | - |
| 1777546078 | 6.11° C | 83% | 4268.8 hPa | 0 mm | - | 2 W/m² | - |
| 1777545773 | 6.11° C | 83% | 4268.9 hPa | 0 mm | - | 1 W/m² | - |
| 1777545470 | 6.11° C | 83% | 4268.9 hPa | 0 mm | - | 0 W/m² | - |
| 1777545168 | 6.11° C | 83% | 4268.6 hPa | 0 mm | - | 0 W/m² | - |
| 1777544866 | 6.11° C | 83% | 4268.8 hPa | 0 mm | - | 0 W/m² | - |
| 1777544561 | 6.11° C | 83% | 4268.7 hPa | 0 mm | - | 0 W/m² | - |
| 1777544258 | 6.11° C | 83% | 4268.6 hPa | 0 mm | - | 0 W/m² | - |
| 1777543955 | 6.11° C | 83% | 4268.7 hPa | 0 mm | - | 0 W/m² | - |
| 1777543651 | 5.56° C | 83% | 4268.6 hPa | 0 mm | - | 0 W/m² | - |
| 1777543347 | 6.11° C | 83% | 4268.6 hPa | 0 mm | - | 0 W/m² | - |
| 1777543043 | 5.56° C | 83% | 4268.6 hPa | 0 mm | - | 0 W/m² | - |
* Rain latest hour (hover to see other rain measurements)
** Current wind speed in m/s (hover to see current wind gust speed)